User: anonymous
Location: Cincinnati Observatory Center
(39.1389°N, 84.4225°W)
Time: 11:27:23
(UTC-04:00)
Language:

JAS-1B - Orbit

View from above orbital plane
View from above orbital plane
View from above satellite
View from above satellite

Ground track
Ground track

The orbit data is extracted from the following two-line orbital elements,

1 20480U 90013C   14106.92858597  .00000019  00000-0  10677-3 0  7051
2 20480 099.0383 081.5951 0540945 132.5513 292.9030 12.83392405133272
Epoch (UTC): 16 April 2014 22:17:09
Eccentricity: 0.0540945
inclination: 99.0383°
perigee height: 911 km
apogee height: 1745 km
right ascension of ascending node: 81.5951°
argument of perigee: 132.5513°
revolutions per day: 12.83392405
mean anomaly at epoch: 292.9030°
orbit number at epoch: 13327

The dashed part of the orbit path shows where the satellite is in the earth's shadow,  

DLR